When you browse on this site, cookies collect data to enhance your experience and personalize the content and advertising you see.
Visit our Privacy Policy to learn more. By continuing to use the site, you agree to this use of cookies and data.
  • In Deutschland
  • Länderverzeichnis
  • Für 7 Tage
  • Wassertemperatur
  • Satellitenkarten
  • Wetterkarte
  • Widgets
  • user-avatar
    Anmelden

    Stündliche Wetter Victoria

    Heute, 22 Januar, Dienstag

    Zeit Temperatur Niederschläge Wind Luftdruck Luftfeuchtigkeit
    00:00 +26°C° 0 mm 4 m/S 748 mmHg 58%
    01:00 +25°C° 0 mm 4 m/S 748 mmHg 62%
    02:00 +25°C° 0 mm 3 m/S 747 mmHg 63%
    03:00 +24°C° 0 mm 3 m/S 747 mmHg 63%
    04:00 +24°C° 0 mm 2 m/S 747 mmHg 61%
    05:00 +25°C° 0 mm 2 m/S 747 mmHg 58%
    06:00 +26°C° 0 mm 3 m/S 747 mmHg 54%
    07:00 +27°C° 0 mm 3 m/S 748 mmHg 50%
    08:00 +30°C° 0 mm 2 m/S 748 mmHg 42%
    09:00 +34°C° 0 mm 2 m/S 748 mmHg 34%
    10:00 +37°C° 0 mm 2 m/S 748 mmHg 26%
    11:00 +39°C° 0 mm 2 m/S 747 mmHg 23%
    12:00 +40°C° 0 mm 3 m/S 747 mmHg 19%
    13:00 +43°C° 0 mm 3 m/S 746 mmHg 15%
    14:00 +43°C° 0 mm 3 m/S 746 mmHg 14%
    15:00 +43°C° 0 mm 3 m/S 745 mmHg 14%
    16:00 +44°C° 0 mm 3 m/S 745 mmHg 13%
    17:00 +43°C° 0 mm 3 m/S 745 mmHg 15%
    18:00 +40°C° 0 mm 3 m/S 745 mmHg 16%
    19:00 +39°C° 0 mm 2 m/S 745 mmHg 18%
    20:00 +37°C° 0 mm 3 m/S 746 mmHg 24%
    21:00 +34°C° 0 mm 4 m/S 746 mmHg 30%
    22:00 +32°C° 0 mm 6 m/S 746 mmHg 36%
    23:00 +30°C° 0 mm 5 m/S 746 mmHg 38%

    Morgen, 23 Januar, Mittwoch

    Zeit Temperatur Niederschläge Wind Luftdruck Luftfeuchtigkeit
    00:00 +29°C° 0 mm 5 m/S 746 mmHg 41%
    01:00 +28°C° 0 mm 4 m/S 747 mmHg 44%
    02:00 +27°C° 0 mm 4 m/S 747 mmHg 45%
    03:00 +26°C° 0 mm 4 m/S 747 mmHg 47%
    04:00 +26°C° 0 mm 4 m/S 747 mmHg 49%
    05:00 +26°C° 0 mm 4 m/S 747 mmHg 48%
    06:00 +26°C° 0 mm 4 m/S 747 mmHg 48%
    07:00 +26°C° 0 mm 4 m/S 747 mmHg 47%
    08:00 +29°C° 0 mm 4 m/S 747 mmHg 40%
    09:00 +33°C° 0 mm 4 m/S 747 mmHg 34%
    10:00 +35°C° 0 mm 4 m/S 747 mmHg 28%
    11:00 +37°C° 0 mm 4 m/S 747 mmHg 24%
    12:00 +40°C° 0 mm 5 m/S 747 mmHg 21%
    13:00 +42°C° 0 mm 5 m/S 746 mmHg 17%
    14:00 +42°C° 0 mm 6 m/S 746 mmHg 16%
    15:00 +42°C° 0 mm 6 m/S 746 mmHg 15%
    16:00 +44°C° 0 mm 7 m/S 745 mmHg 13%
    17:00 +40°C° 0 mm 7 m/S 745 mmHg 20%
    18:00 +36°C° 0 mm 7 m/S 746 mmHg 27%
    19:00 +34°C° 0 mm 7 m/S 746 mmHg 34%
    20:00 +30°C° 0 mm 7 m/S 747 mmHg 42%
    21:00 +28°C° 0 mm 7 m/S 747 mmHg 49%
    22:00 +26°C° 0 mm 6 m/S 748 mmHg 56%
    23:00 +26°C° 0 mm 5 m/S 748 mmHg 57%

    übermorgen, 24 Januar, Donnerstag

    Zeit Temperatur Niederschläge Wind Luftdruck Luftfeuchtigkeit
    00:00 +25°C° 0 mm 4 m/S 748 mmHg 58%
    01:00 +25°C° 0 mm 4 m/S 748 mmHg 59%
    02:00 +25°C° 0 mm 3 m/S 748 mmHg 60%
    03:00 +25°C° 0 mm 3 m/S 748 mmHg 61%
    04:00 +24°C° 0 mm 3 m/S 747 mmHg 62%
    05:00 +25°C° 0 mm 3 m/S 748 mmHg 60%
    06:00 +26°C° 0 mm 3 m/S 748 mmHg 58%
    07:00 +27°C° 0 mm 3 m/S 748 mmHg 56%
    08:00 +29°C° 0 mm 3 m/S 748 mmHg 50%
    09:00 +33°C° 0 mm 4 m/S 748 mmHg 44%
    10:00 +35°C° 0 mm 4 m/S 748 mmHg 38%
    11:00 +37°C° 0 mm 4 m/S 747 mmHg 34%
    12:00 +40°C° 0 mm 4 m/S 747 mmHg 31%
    13:00 +41°C° 0 mm 4 m/S 746 mmHg 27%
    14:00 +42°C° 0 mm 3 m/S 746 mmHg 24%
    15:00 +43°C° 0 mm 3 m/S 745 mmHg 22%
    16:00 +43°C° 0 mm 3 m/S 744 mmHg 20%
    17:00 +42°C° 0 mm 3 m/S 744 mmHg 21%
    18:00 +40°C° 0 mm 3 m/S 744 mmHg 22%
    19:00 +39°C° 0 mm 3 m/S 744 mmHg 23%
    20:00 +38°C° 0 mm 3 m/S 745 mmHg 25%
    21:00 +36°C° 0 mm 3 m/S 745 mmHg 27%
    22:00 +35°C° 0 mm 3 m/S 745 mmHg 29%
    23:00 +35°C° 0 mm 4 m/S 745 mmHg 29%

    25 Januar, Freitag

    Zeit Temperatur Niederschläge Wind Luftdruck Luftfeuchtigkeit
    00:00 +34°C° 0 mm 4 m/S 745 mmHg 30%
    01:00 +34°C° 0 mm 5 m/S 745 mmHg 31%
    02:00 +34°C° 0 mm 5 m/S 744 mmHg 34%
    03:00 +33°C° 0 mm 5 m/S 744 mmHg 38%
    04:00 +32°C° 0 mm 6 m/S 744 mmHg 42%
    05:00 +32°C° 0 mm 6 m/S 744 mmHg 43%
    06:00 +33°C° 0 mm 6 m/S 745 mmHg 43%
    07:00 +33°C° 0 mm 7 m/S 745 mmHg 44%
    08:00 +35°C° 0 mm 7 m/S 745 mmHg 38%
    09:00 +39°C° 0 mm 6 m/S 745 mmHg 33%
    10:00 +42°C° 0 mm 6 m/S 745 mmHg 27%
    11:00 +45°C° 0 mm 6 m/S 744 mmHg 24%
    12:00 +47°C° 0 mm 6 m/S 743 mmHg 20%
    13:00 +49°C° 0 mm 6 m/S 743 mmHg 17%
    14:00 +48°C° 0 mm 6 m/S 742 mmHg 16%
    15:00 +48°C° 0 mm 5 m/S 741 mmHg 16%
    16:00 +48°C° 0 mm 5 m/S 741 mmHg 16%
    17:00 +46°C° 0 mm 5 m/S 741 mmHg 17%
    18:00 +45°C° 0 mm 5 m/S 742 mmHg 19%
    19:00 +43°C° 0 mm 5 m/S 742 mmHg 20%
    20:00 +37°C° 0.5 mm 5 m/S 743 mmHg 34%
    21:00 +33°C° 0.5 mm 5 m/S 744 mmHg 48%
    22:00 +28°C° 0.5 mm 5 m/S 744 mmHg 61%
    23:00 +28°C° 0 mm 4 m/S 744 mmHg 61%

    26 Januar, Samstag

    Zeit Temperatur Niederschläge Wind Luftdruck Luftfeuchtigkeit
    00:00 +28°C° 0 mm 3 m/S 744 mmHg 61%
    01:00 +28°C° 0 mm 2 m/S 744 mmHg 60%
    02:00 +27°C° 0 mm 3 m/S 744 mmHg 63%
    03:00 +26°C° 0 mm 3 m/S 744 mmHg 66%
    04:00 +25°C° 0 mm 4 m/S 744 mmHg 69%
    05:00 +25°C° 0 mm 4 m/S 744 mmHg 68%
    06:00 +25°C° 0 mm 4 m/S 744 mmHg 66%
    07:00 +25°C° 0 mm 4 m/S 744 mmHg 65%
    08:00 +27°C° 0 mm 3 m/S 744 mmHg 57%
    09:00 +30°C° 0 mm 3 m/S 744 mmHg 48%
    10:00 +34°C° 0 mm 2 m/S 744 mmHg 39%
    11:00 +36°C° 0 mm 3 m/S 743 mmHg 34%
    12:00 +38°C° 0 mm 3 m/S 743 mmHg 29%
    13:00 +40°C° 0 mm 4 m/S 742 mmHg 24%
    14:00 +41°C° 0 mm 5 m/S 742 mmHg 23%
    15:00 +42°C° 0 mm 5 m/S 741 mmHg 22%
    16:00 +42°C° 0 mm 6 m/S 740 mmHg 21%
    17:00 +41°C° 0 mm 6 m/S 740 mmHg 20%
    18:00 +40°C° 0 mm 6 m/S 740 mmHg 19%
    19:00 +38°C° 0 mm 6 m/S 740 mmHg 18%
    20:00 +34°C° 0 mm 6 m/S 741 mmHg 25%
    21:00 +30°C° 0 mm 6 m/S 742 mmHg 32%
    22:00 +27°C° 0 mm 6 m/S 742 mmHg 39%
    23:00 +24°C° 0 mm 6 m/S 743 mmHg 49%

    27 Januar, Sonntag

    Zeit Temperatur Niederschläge Wind Luftdruck Luftfeuchtigkeit
    00:00 +22°C° 0 mm 6 m/S 743 mmHg 58%
    01:00 +20°C° 0 mm 5 m/S 744 mmHg 67%
    02:00 +19°C° 0 mm 5 m/S 744 mmHg 70%
    03:00 +17°C° 0 mm 5 m/S 744 mmHg 72%
    04:00 +18°C° 0 mm 4 m/S 744 mmHg 74%
    05:00 +17°C° 0 mm 5 m/S 745 mmHg 72%
    06:00 +17°C° 0 mm 5 m/S 745 mmHg 69%
    07:00 +19°C° 0 mm 5 m/S 745 mmHg 67%
    08:00 +21°C° 0 mm 5 m/S 745 mmHg 55%
    09:00 +23°C° 0 mm 5 m/S 746 mmHg 44%
    10:00 +26°C° 0 mm 5 m/S 746 mmHg 33%
    11:00 +28°C° 0 mm 5 m/S 745 mmHg 28%
    12:00 +30°C° 0 mm 5 m/S 745 mmHg 23%
    13:00 +33°C° 0 mm 6 m/S 744 mmHg 18%
    14:00 +34°C° 0 mm 5 m/S 744 mmHg 17%
    15:00 +34°C° 0 mm 5 m/S 744 mmHg 15%
    16:00 +35°C° 0 mm 5 m/S 743 mmHg 14%
    17:00 +34°C° 0 mm 5 m/S 744 mmHg 16%
    18:00 +33°C° 0 mm 4 m/S 744 mmHg 18%
    19:00 +31°C° 0 mm 3 m/S 744 mmHg 20%
    20:00 +28°C° 0 mm 3 m/S 745 mmHg 26%
    21:00 +26°C° 0 mm 3 m/S 745 mmHg 32%
    22:00 +23°C° 0 mm 4 m/S 746 mmHg 37%
    23:00 +22°C° 0 mm 4 m/S 746 mmHg 45%
    Mehr zeigen